CST,Max TemperatureF,Mean TemperatureF,Min TemperatureF,Max Dew PointF,MeanDew PointF,Min DewpointF,Max Humidity, Mean Humidity, Min Humidity, Max Sea Level PressureIn, Mean Sea Level PressureIn, Min Sea Level PressureIn, Max VisibilityMiles, Mean VisibilityMiles, Min VisibilityMiles, Max Wind SpeedMPH, Mean Wind SpeedMPH, Max Gust SpeedMPH,PrecipitationIn, CloudCover, Events, WindDirDegrees
2013-2-1,0,-6,-13,-6,-13,-18,78,68,55,30.14,30.07,30.00,10,9,3,13,9,18,0.03,3,Snow,260
2013-2-2,8,3,-2,-2,-6,-9,85,67,52,30.04,29.98,29.88,10,10,4,9,2,,0.11,4,Snow,251
2013-2-3,12,8,3,1,-1,-2,85,70,53,29.91,29.87,29.81,10,9,2,18,6,25,0.00,6,Snow,283
2013-2-4,14,6,-2,0,-5,-8,78,59,38,29.93,29.88,29.78,10,10,10,10,2,,1.17,2,,237
2013-2-5,21,10,0,18,9,-4,93,82,57,30.01,29.77,29.59,10,7,1,14,7,18,0.00,6,Snow,253
2013-2-6,21,6,-9,19,6,-15,93,85,77,30.09,30.03,29.98,10,6,0,13,3,16,0.00,5,Snow,123
2013-2-7,24,22,21,21,20,16,100,88,80,30.16,30.02,29.98,10,5,2,15,8,18,0.00,8,Snow,46
2013-2-8,24,15,6,16,7,3,92,73,50,30.31,30.26,30.17,10,10,4,15,5,21,0.33,1,,32
2013-2-9,24,17,10,21,14,7,93,89,73,30.27,30.11,29.96,10,5,0,14,7,17,0.01,6,Snow,151
2013-2-10,35,29,23,36,27,21,100,92,86,29.97,29.58,29.22,10,3,0,18,10,24,0.44,8,Fog-Snow,114
2013-2-11,35,29,23,34,25,18,93,87,80,29.89,29.54,29.22,10,7,2,23,12,29,0.92,8,Rain-Snow,276
2013-2-12,24,20,17,19,16,12,93,83,74,29.94,29.85,29.72,10,9,4,15,9,17,0.31,5,Snow,235
2013-2-13,32,24,17,28,23,16,93,88,75,29.72,29.64,29.56,10,6,1,9,4,,0.72,7,Snow,235
2013-2-14,30,19,8,28,20,5,100,82,60,30.00,29.74,29.54,10,6,1,16,7,23,1.43,7,Snow,346
2013-2-15,17,10,3,7,2,-2,92,68,53,30.13,30.08,30.00,10,10,10,15,7,18,1.92,5,,302
2013-2-16,12,4,-9,1,-5,-15,92,71,45,30.11,30.08,30.06,10,10,5,7,2,,0.82,1,,269
2013-2-17,19,0,-18,12,-4,-24,85,67,49,30.08,29.97,29.78,10,10,1,14,4,23,0.00,1,,141
2013-2-18,33,26,19,28,22,12,93,83,74,29.76,29.53,29.45,10,7,1,21,10,22,0.83,5,Snow,184
2013-2-19,23,13,3,19,0,-6,93,72,56,30.11,29.82,29.49,10,6,1,24,16,30,0.37,5,Snow,303
2013-2-20,21,10,-2,7,3,-6,85,69,49,30.33,30.26,30.11,10,10,7,13,8,20,0.88,2,,350
2013-2-21,24,11,-2,18,6,-6,92,75,58,30.39,30.26,30.06,10,10,0,20,4,25,1.15,1,Snow,70
2013-2-22,28,22,17,25,20,16,93,88,80,30.07,29.83,29.75,10,4,0,20,10,24,0.96,8,Snow,64
2013-2-23,28,24,19,23,20,18,93,86,74,29.85,29.76,29.72,10,8,1,10,4,,0.53,8,Snow,265
2013-2-24,30,24,19,25,21,16,93,81,69,30.06,29.98,29.86,10,7,3,8,3,,0.17,7,Snow,259
2013-2-25,30,22,15,27,23,12,93,86,80,30.07,30.04,30.01,10,8,1,7,2,,0.88,8,Snow,150
2013-2-26,33,28,23,27,24,19,86,78,69,30.03,29.89,29.77,10,9,7,21,8,28,0.54,6,,56
2013-2-27,33,30,28,28,25,21,93,83,74,29.86,29.76,29.72,10,6,0,18,12,26,0.68,8,Snow,9
2013-2-28,30,26,21,25,19,12,86,74,59,30.14,30.01,29.87,10,10,7,18,11,24,0.18,8,,12